| time (UTC) | temp C | wind direction | speed KPH | gust KPH | rain 1hr cm | rain 24hr cm | rain mn cm | humidity % | barometer mb |
| 20260506185317 | 17 | 15 | 12.9 | 25.7 | 0.00 | 0.00 | 0.00 | 64 | 991.0 |
| 20260506184812 | 17 | 36 | 14.5 | 27.4 | 0.00 | 0.00 | 0.00 | 63 | 990.9 |
| 20260506184314 | 17 | 303 | 14.5 | 27.4 | 0.00 | 0.00 | 0.00 | 65 | 991.1 |
| 20260506183812 | 17 | 46 | 12.9 | 24.1 | 0.00 | 0.00 | 0.00 | 67 | 991.0 |
| 20260506183322 | 17 | 38 | 12.9 | 25.7 | 0.00 | 0.00 | 0.00 | 65 | 991.0 |
| 20260506182810 | 17 | 34 | 14.5 | 25.7 | 0.00 | 0.00 | 0.00 | 66 | 991.1 |
| 20260506182312 | 16 | 36 | 12.9 | 27.4 | 0.00 | 0.00 | 0.00 | 65 | 991.0 |
| 20260506181810 | 16 | 46 | 14.5 | 27.4 | 0.00 | 0.00 | 0.00 | 66 | 991.0 |
| 20260506181313 | 16 | 25 | 16.1 | 27.4 | 0.00 | 0.00 | 0.00 | 67 | 990.9 |
| 20260506180808 | 17 | 23 | 17.7 | 30.6 | 0.00 | 0.00 | 0.00 | 65 | 991.1 |
| 20260506180309 | 16 | 22 | 16.1 | 30.6 | 0.00 | 0.00 | 0.00 | 68 | 991.2 |
| 20260506175807 | 16 | 29 | 14.5 | 25.7 | 0.00 | 0.00 | 0.00 | 67 | 991.3 |
| 20260506175307 | 16 | 50 | 12.9 | 24.1 | 0.00 | 0.00 | 0.00 | 71 | 991.0 |
| 20260506174808 | 15 | 5 | 12.9 | 22.5 | 0.00 | 0.00 | 0.00 | 67 | 991.1 |
| 20260506174312 | 16 | 322 | 16.1 | 25.7 | 0.00 | 0.00 | 0.00 | 66 | 991.4 |
| 20260506173808 | 15 | 69 | 14.5 | 25.7 | 0.00 | 0.00 | 0.00 | 69 | 991.3 |
| 20260506173310 | 15 | 9 | 14.5 | 24.1 | 0.00 | 0.00 | 0.00 | 69 | 991.4 |
| 20260506172809 | 15 | 33 | 17.7 | 29.0 | 0.00 | 0.00 | 0.00 | 69 | 991.4 |
| 20260506172306 | 14 | 32 | 19.3 | 29.0 | 0.00 | 0.00 | 0.00 | 70 | 991.3 |
| 20260506171808 | 14 | 37 | 19.3 | 29.0 | 0.00 | 0.00 | 0.00 | 70 | 991.5 |
| 20260506171307 | 13 | 26 | 17.7 | 29.0 | 0.00 | 0.00 | 0.00 | 71 | 991.9 |
| 20260506170806 | 13 | 13 | 16.1 | 25.7 | 0.00 | 0.00 | 0.00 | 72 | 991.6 |
| 20260506170306 | 13 | 319 | 16.1 | 24.1 | 0.00 | 0.00 | 0.00 | 72 | 991.7 |
| 20260506165806 | 12 | 16 | 16.1 | 24.1 | 0.00 | 0.00 | 0.00 | 72 | 991.9 |
| 20260506165307 | 12 | 309 | 14.5 | 17.7 | 0.00 | 0.00 | 0.00 | 73 | 991.6 |
| 20260506164805 | 12 | 346 | 14.5 | 25.7 | 0.00 | 0.00 | 0.00 | 74 | 991.5 |
| 20260506164313 | 12 | 346 | 14.5 | 25.7 | 0.00 | 0.00 | 0.00 | 73 | 991.5 |
| 20260506163802 | 12 | 12 | 14.5 | 25.7 | 0.00 | 0.00 | 0.00 | 73 | 991.4 |
| 20260506163301 | 12 | 19 | 14.5 | 22.5 | 0.00 | 0.00 | 0.00 | 74 | 991.6 |
| 20260506162759 | 12 | 13 | 16.1 | 27.4 | 0.00 | 0.00 | 0.00 | 74 | 991.7 |
| 20260506162415 | 12 | 21 | 12.9 | 25.7 | 0.00 | 0.00 | 0.00 | 73 | 991.7 |
| 20260506162321 | 12 | 18 | 16.1 | 27.4 | 0.00 | 0.00 | 0.00 | 73 | 991.5 |
| 20260506161302 | 12 | 19 | 9.7 | 22.5 | 0.00 | 0.00 | 0.00 | 74 | 991.6 |
| 20260506161208 | 12 | 21 | 12.9 | 22.5 | 0.00 | 0.00 | 0.00 | 75 | 991.5 |
| 20260506160934 | 12 | 347 | 11.3 | 25.7 | 0.00 | 0.00 | 0.00 | 74 | 991.6 |
| 20260506160611 | 12 | 0 | 14.5 | 22.5 | 0.00 | 0.00 | 0.00 | 74 | 991.2 |
| 20260506160336 | 12 | 0 | 11.3 | 25.7 | 0.00 | 0.00 | 0.00 | 74 | 991.3 |
| 20260506154834 | 12 | 10 | 12.9 | 20.9 | 0.00 | 0.00 | 0.00 | 74 | 991.6 |
| 20260506154257 | 12 | 5 | 11.3 | 20.9 | 0.00 | 0.00 | 0.00 | 75 | 991.7 |
| 20260506153757 | 12 | 355 | 8.0 | 14.5 | 0.00 | 0.00 | 0.00 | 76 | 992.2 |
| 20260506153255 | 12 | 13 | 6.4 | 14.5 | 0.00 | 0.00 | 0.00 | 76 | 992.7 |
| 20260506152748 | 11 | 10 | 4.8 | 12.9 | 0.00 | 0.00 | 0.00 | 76 | 993.3 |
| 20260506152255 | 11 | 317 | 3.2 | 8.0 | 0.00 | 0.00 | 0.00 | 77 | 993.4 |
| 20260506151750 | 11 | 338 | 3.2 | 14.5 | 0.00 | 0.00 | 0.00 | 76 | 993.4 |
| 20260506151245 | 11 | 338 | 4.8 | 16.1 | 0.00 | 0.00 | 0.00 | 76 | 993.3 |
| 20260506150744 | 11 | 319 | 9.7 | 20.9 | 0.00 | 0.00 | 0.00 | 76 | 993.2 |
| 20260506150246 | 11 | 54 | 14.5 | 20.9 | 0.00 | 0.00 | 0.00 | 77 | 992.1 |
| 20260506145744 | 11 | 0 | 14.5 | 24.1 | 0.00 | 0.00 | 0.00 | 76 | 991.3 |
| 20260506145247 | 11 | 319 | 14.5 | 24.1 | 0.00 | 0.00 | 0.00 | 76 | 991.3 |
| 20260506144752 | 11 | 19 | 14.5 | 22.5 | 0.00 | 0.00 | 0.00 | 77 | 991.6 |
| 20260506144607 | 11 | 20 | 9.7 | 22.5 | 0.00 | 0.00 | 0.00 | 77 | 992.1 |
| 20260506144258 | 11 | 31 | 12.9 | 20.9 | 0.00 | 0.00 | 0.00 | 78 | 991.5 |
| 20260506143831 | 11 | 24 | 11.3 | 22.5 | 0.00 | 0.00 | 0.00 | 77 | 991.9 |
| 20260506142755 | 11 | 10 | 11.3 | 20.9 | 0.00 | 0.00 | 0.00 | 78 | 992.0 |
| 20260506142257 | 11 | 28 | 12.9 | 22.5 | 0.00 | 0.00 | 0.00 | 78 | 991.7 |
| 20260506141752 | 11 | 5 | 11.3 | 22.5 | 0.00 | 0.00 | 0.00 | 78 | 991.6 |
| 20260506141248 | 11 | 11 | 9.7 | 16.1 | 0.00 | 0.00 | 0.00 | 79 | 991.7 |
| 20260506140804 | 11 | 340 | 9.7 | 16.1 | 0.00 | 0.00 | 0.00 | 80 | 991.9 |
| 20260506140257 | 11 | 13 | 9.7 | 22.5 | 0.00 | 0.00 | 0.00 | 80 | 992.0 |
| 20260506135746 | 11 | 38 | 11.3 | 22.5 | 0.00 | 0.00 | 0.00 | 79 | 991.6 |
| 20260506135241 | 11 | 0 | 12.9 | 20.9 | 0.00 | 0.00 | 0.00 | 80 | 991.1 |
| 20260506134745 | 11 | 5 | 11.3 | 22.5 | 0.00 | 0.00 | 0.00 | 79 | 991.0 |
| 20260506134707 | 11 | 13 | 11.3 | 22.5 | 0.00 | 0.00 | 0.00 | 80 | 990.6 |
| 20260506134332 | 11 | 29 | 11.3 | 22.5 | 0.00 | 0.00 | 0.00 | 80 | 990.8 |
| 20260506133340 | 11 | 34 | 11.3 | 22.5 | 0.00 | 0.00 | 0.00 | 80 | 990.7 |
| 20260506132742 | 11 | 289 | 12.9 | 22.5 | 0.00 | 0.00 | 0.00 | 80 | 990.9 |
| 20260506132655 | 11 | 18 | 12.9 | 20.9 | 0.00 | 0.00 | 0.00 | 80 | 990.9 |
| 20260506132321 | 11 | 0 | 12.9 | 20.9 | 0.00 | 0.00 | 0.00 | 81 | 990.8 |
| 20260506131306 | 10 | 0 | 16.1 | 25.7 | 0.00 | 0.00 | 0.00 | 82 | 990.6 |
| 20260506131238 | 11 | 297 | 14.5 | 27.4 | 0.00 | 0.00 | 0.00 | 81 | 990.7 |
| 20260506130847 | 10 | 16 | 16.1 | 27.4 | 0.00 | 0.00 | 0.00 | 82 | 990.4 |
| 20260506125739 | 10 | 13 | 14.5 | 25.7 | 0.00 | 0.00 | 0.00 | 82 | 990.4 |
| 20260506125236 | 10 | 12 | 11.3 | 24.1 | 0.00 | 0.00 | 0.00 | 83 | 990.3 |
| 20260506124731 | 10 | 30 | 11.3 | 20.9 | 0.00 | 0.00 | 0.00 | 83 | 990.3 |
| 20260506124227 | 10 | 311 | 12.9 | 24.1 | 0.00 | 0.00 | 0.00 | 83 | 990.3 |
| 20260506124009 | 10 | 355 | 8.0 | 19.3 | 0.00 | 0.00 | 0.00 | 84 | 990.2 |
| 20260506123817 | 10 | 17 | 11.3 | 24.1 | 0.00 | 0.00 | 0.00 | 84 | 990.2 |
| 20260506122728 | 10 | 316 | 8.0 | 19.3 | 0.00 | 0.00 | 0.00 | 85 | 990.2 |
| 20260506122235 | 10 | 338 | 8.0 | 24.1 | 0.00 | 0.00 | 0.00 | 85 | 990.3 |
| 20260506121724 | 10 | 0 | 9.7 | 24.1 | 0.00 | 0.00 | 0.00 | 85 | 990.1 |
| 20260506121226 | 10 | 323 | 9.7 | 19.3 | 0.00 | 0.00 | 0.00 | 85 | 990.1 |
| 20260506120737 | 10 | 326 | 9.7 | 19.3 | 0.00 | 0.00 | 0.00 | 86 | 990.1 |
| 20260506120225 | 10 | 319 | 9.7 | 19.3 | 0.00 | 0.00 | 0.00 | 86 | 990.1 |
| 20260506115721 | 10 | 5 | 9.7 | 19.3 | 0.00 | 0.00 | 0.00 | 86 | 990.2 |
| 20260506115323 | 10 | 319 | 8.0 | 16.1 | 0.00 | 0.00 | 0.00 | 85 | 989.9 |
| 20260506115231 | 10 | 305 | 8.0 | 16.1 | 0.00 | 0.00 | 0.00 | 86 | 990.2 |
| 20260506114218 | 10 | 322 | 8.0 | 17.7 | 0.00 | 0.00 | 0.00 | 85 | 989.9 |
| 20260506113712 | 10 | 343 | 8.0 | 17.7 | 0.00 | 0.00 | 0.00 | 85 | 989.8 |
| 20260506113217 | 10 | 313 | 9.7 | 20.9 | 0.00 | 0.00 | 0.00 | 85 | 989.7 |
| 20260506112711 | 10 | 10 | 9.7 | 27.4 | 0.00 | 0.00 | 0.00 | 84 | 989.6 |
| 20260506112214 | 10 | 31 | 9.7 | 27.4 | 0.00 | 0.00 | 0.00 | 85 | 989.4 |
| 20260506111711 | 10 | 355 | 9.7 | 17.7 | 0.00 | 0.00 | 0.00 | 84 | 989.4 |
| 20260506111211 | 10 | 309 | 9.7 | 20.9 | 0.00 | 0.00 | 0.00 | 85 | 989.1 |
| 20260506110714 | 10 | 329 | 11.3 | 20.9 | 0.00 | 0.00 | 0.00 | 84 | 989.3 |
| 20260506110442 | 11 | 17 | 14.5 | 27.4 | 0.00 | 0.00 | 0.00 | 80 | 988.9 |
| 20260506110434 | 11 | 355 | 14.5 | 24.1 | 0.00 | 0.00 | 0.00 | 81 | 988.9 |
| 20260506110254 | 10 | 317 | 14.5 | 25.7 | 0.00 | 0.00 | 0.00 | 83 | 989.2 |
| 20260506105731 | 10 | 321 | 16.1 | 25.7 | 0.00 | 0.00 | 0.00 | 82 | 989.0 |
| 20260506104247 | 11 | 5 | 12.9 | 24.1 | 0.00 | 0.00 | 0.00 | 77 | 988.7 |
| 20260506104215 | 11 | 315 | 14.5 | 27.4 | 0.00 | 0.00 | 0.00 | 79 | 988.8 |
| 20260506103224 | 11 | 11 | 12.9 | 24.1 | 0.00 | 0.00 | 0.00 | 77 | 988.8 |
| 20260506102749 | 11 | 327 | 12.9 | 25.7 | 0.00 | 0.00 | 0.00 | 75 | 988.8 |
| 20260506102710 | 11 | 24 | 12.9 | 22.5 | 0.00 | 0.00 | 0.00 | 76 | 988.8 |
| 20260506101708 | 11 | 316 | 12.9 | 25.7 | 0.00 | 0.00 | 0.00 | 75 | 988.7 |
| 20260506101200 | 11 | 324 | 14.5 | 22.5 | 0.00 | 0.00 | 0.00 | 74 | 988.6 |
| 20260506100805 | 12 | 0 | 14.5 | 25.7 | 0.00 | 0.00 | 0.00 | 74 | 988.5 |
| 20260506100717 | 12 | 355 | 12.9 | 25.7 | 0.00 | 0.00 | 0.00 | 74 | 988.6 |
| 20260506095746 | 12 | 325 | 9.7 | 22.5 | 0.00 | 0.00 | 0.00 | 74 | 988.3 |
| 20260506095707 | 12 | 329 | 12.9 | 22.5 | 0.00 | 0.00 | 0.00 | 74 | 988.5 |
| 20260506094704 | 12 | 301 | 8.0 | 16.1 | 0.00 | 0.00 | 0.00 | 74 | 988.4 |
| 20260506094158 | 12 | 24 | 9.7 | 17.7 | 0.00 | 0.00 | 0.00 | 73 | 988.3 |
| 20260506093810 | 12 | 27 | 8.0 | 17.7 | 0.00 | 0.00 | 0.00 | 73 | 988.0 |
| 20260506093757 | 12 | 17 | 8.0 | 17.7 | 0.00 | 0.00 | 0.00 | 73 | 988.1 |
| 20260506093712 | 12 | 23 | 9.7 | 17.7 | 0.00 | 0.00 | 0.00 | 73 | 988.1 |
| 20260506092249 | 12 | 324 | 9.7 | 22.5 | 0.00 | 0.00 | 0.00 | 74 | 987.8 |
| 20260506092207 | 12 | 16 | 8.0 | 22.5 | 0.00 | 0.00 | 0.00 | 73 | 987.9 |
| 20260506091155 | 12 | 0 | 8.0 | 19.3 | 0.00 | 0.00 | 0.00 | 74 | 987.8 |
| 20260506090657 | 12 | 0 | 8.0 | 17.7 | 0.00 | 0.00 | 0.00 | 74 | 987.7 |
| 20260506090154 | 12 | 324 | 9.7 | 19.3 | 0.00 | 0.00 | 0.00 | 74 | 987.7 |
| 20260506085651 | 12 | 9 | 11.3 | 19.3 | 0.00 | 0.00 | 0.00 | 74 | 987.7 |
| 20260506085305 | 12 | 329 | 6.4 | 17.7 | 0.00 | 0.00 | 0.00 | 75 | 987.8 |
| 20260506085257 | 12 | 323 | 6.4 | 12.9 | 0.00 | 0.00 | 0.00 | 75 | 987.7 |
| 20260506085212 | 12 | 336 | 8.0 | 19.3 | 0.00 | 0.00 | 0.00 | 75 | 987.7 |
| 20260506083646 | 12 | 0 | 8.0 | 16.1 | 0.00 | 0.00 | 0.00 | 74 | 987.5 |
| 20260506083146 | 12 | 0 | 8.0 | 16.1 | 0.00 | 0.00 | 0.00 | 74 | 987.6 |
| 20260506082645 | 12 | 10 | 8.0 | 17.7 | 0.00 | 0.00 | 0.00 | 73 | 987.6 |
| 20260506082146 | 12 | 14 | 8.0 | 17.7 | 0.00 | 0.00 | 0.00 | 74 | 987.6 |
| 20260506081731 | 12 | 18 | 8.0 | 16.1 | 0.00 | 0.00 | 0.00 | 74 | 987.7 |
| 20260506081655 | 12 | 311 | 8.0 | 17.7 | 0.00 | 0.00 | 0.00 | 74 | 987.7 |
| 20260506080647 | 12 | 347 | 6.4 | 16.1 | 0.00 | 0.00 | 0.00 | 74 | 987.7 |
| 20260506080150 | 12 | 355 | 6.4 | 17.7 | 0.00 | 0.00 | 0.00 | 75 | 987.6 |
| 20260506072636 | 13 | 331 | 8.0 | 17.7 | 0.00 | 0.00 | 0.00 | 75 | 987.5 |
| 20260506072138 | 12 | 331 | 9.7 | 17.7 | 0.00 | 0.00 | 0.00 | 75 | 987.0 |
| 20260506071633 | 13 | 41 | 11.3 | 17.7 | 0.00 | 0.00 | 0.00 | 74 | 986.7 |
| 20260506071143 | 13 | 5 | 14.5 | 19.3 | 0.00 | 0.00 | 0.00 | 75 | 986.6 |
| 20260506070633 | 13 | 28 | 12.9 | 19.3 | 0.00 | 0.00 | 0.00 | 75 | 986.6 |
| 20260506070157 | 13 | 5 | 12.9 | 19.3 | 0.00 | 0.00 | 0.00 | 75 | 986.8 |
| 20260506062127 | 13 | 321 | 8.0 | 14.5 | 0.00 | 0.00 | 0.00 | 76 | 987.2 |
| 20260506061618 | 13 | 342 | 9.7 | 17.7 | 0.00 | 0.00 | 0.00 | 76 | 987.1 |
| 20260506061119 | 13 | 5 | 9.7 | 17.7 | 0.00 | 0.00 | 0.00 | 76 | 986.9 |
| 20260506060616 | 13 | 326 | 8.0 | 17.7 | 0.00 | 0.00 | 0.00 | 76 | 987.0 |
| 20260506060547 | 13 | 323 | 11.3 | 22.5 | 0.00 | 0.00 | 0.00 | 77 | 987.4 |
| 20260506060440 | 13 | 345 | 9.7 | 19.3 | 0.00 | 0.00 | 0.00 | 75 | 987.1 |
| 20260506050732 | 14 | 309 | 9.7 | 19.3 | 0.00 | 0.00 | 0.00 | 77 | 987.4 |
| 20260506045124 | 14 | 315 | 8.0 | 17.7 | 0.00 | 0.00 | 0.00 | 78 | 987.2 |
| 20260506044849 | 14 | 327 | 8.0 | 17.7 | 0.00 | 0.00 | 0.00 | 78 | 987.4 |
| 20260506044612 | 14 | 0 | 8.0 | 19.3 | 0.00 | 0.00 | 0.00 | 78 | 987.3 |
| 20260506044154 | 14 | 0 | 8.0 | 19.3 | 0.00 | 0.00 | 0.00 | 78 | 987.4 |
| 20260506043057 | 14 | 328 | 9.7 | 22.5 | 0.00 | 0.00 | 0.00 | 79 | 987.5 |
| 20260506042548 | 14 | 319 | 9.7 | 22.5 | 0.00 | 0.00 | 0.00 | 79 | 987.3 |
| 20260506042045 | 14 | 5 | 9.7 | 19.3 | 0.00 | 0.00 | 0.00 | 79 | 987.2 |
| 20260506041544 | 14 | 320 | 8.0 | 17.7 | 0.00 | 0.00 | 0.00 | 79 | 987.3 |
| 20260506041045 | 14 | 330 | 6.4 | 14.5 | 0.00 | 0.00 | 0.00 | 79 | 987.4 |
| 20260506040544 | 15 | 0 | 9.7 | 24.1 | 0.00 | 0.00 | 0.00 | 79 | 987.3 |
| 20260506040055 | 15 | 55 | 11.3 | 24.1 | 0.00 | 0.00 | 0.00 | 79 | 987.2 |
| 20260506035540 | 15 | 17 | 11.3 | 20.9 | 0.00 | 0.00 | 0.00 | 79 | 987.0 |
| 20260506035041 | 15 | 355 | 11.3 | 20.9 | 0.00 | 0.00 | 0.00 | 79 | 986.7 |
| 20260506034543 | 15 | 17 | 9.7 | 22.5 | 0.00 | 0.00 | 0.00 | 79 | 986.9 |
| 20260506034042 | 15 | 17 | 11.3 | 22.5 | 0.00 | 0.00 | 0.00 | 79 | 986.8 |
| 20260506033541 | 15 | 318 | 9.7 | 19.3 | 0.00 | 0.00 | 0.00 | 79 | 986.8 |
| 20260506033038 | 15 | 348 | 8.0 | 19.3 | 0.00 | 0.00 | 0.00 | 79 | 986.8 |
| 20260506032537 | 15 | 0 | 8.0 | 17.7 | 0.00 | 0.00 | 0.00 | 79 | 986.5 |
| 20260506032130 | 15 | 327 | 11.3 | 20.9 | 0.00 | 0.00 | 0.00 | 79 | 986.3 |
| 20260506032054 | 15 | 9 | 9.7 | 17.7 | 0.00 | 0.00 | 0.00 | 79 | 986.3 |
| 20260506031033 | 15 | 324 | 12.9 | 20.9 | 0.00 | 0.00 | 0.00 | 78 | 986.4 |
| 20260506030624 | 15 | 355 | 9.7 | 19.3 | 0.00 | 0.00 | 0.00 | 78 | 986.4 |
| 20260506030544 | 15 | 346 | 11.3 | 20.9 | 0.00 | 0.00 | 0.00 | 78 | 986.2 |
| 20260506025535 | 15 | 324 | 11.3 | 20.9 | 0.00 | 0.00 | 0.00 | 78 | 986.4 |
| 20260506025041 | 16 | 0 | 12.9 | 25.7 | 0.00 | 0.00 | 0.00 | 78 | 986.4 |
| 20260506024535 | 16 | 304 | 11.3 | 25.7 | 0.00 | 0.00 | 0.00 | 77 | 986.3 |
| 20260506024033 | 16 | 312 | 9.7 | 19.3 | 0.00 | 0.00 | 0.00 | 79 | 986.0 |
| 20260506023536 | 16 | 336 | 9.7 | 19.3 | 0.00 | 0.00 | 0.00 | 78 | 986.0 |
| 20260506023024 | 16 | 15 | 9.7 | 19.3 | 0.00 | 0.00 | 0.00 | 78 | 985.9 |
| 20260506022524 | 16 | 335 | 11.3 | 20.9 | 0.00 | 0.00 | 0.00 | 78 | 985.6 |
| 20260506022022 | 16 | 338 | 11.3 | 20.9 | 0.00 | 0.00 | 0.00 | 78 | 985.6 |
| 20260506021520 | 16 | 0 | 8.0 | 19.3 | 0.00 | 0.00 | 0.00 | 78 | 985.5 |
| 20260506021021 | 16 | 355 | 8.0 | 20.9 | 0.00 | 0.00 | 0.00 | 78 | 985.4 |
| 20260506020517 | 16 | 333 | 11.3 | 22.5 | 0.00 | 0.00 | 0.00 | 77 | 985.1 |
| 20260506020018 | 16 | 32 | 11.3 | 22.5 | 0.00 | 0.00 | 0.00 | 77 | 985.0 |
| 20260506015537 | 17 | 332 | 9.7 | 17.7 | 0.00 | 0.00 | 0.00 | 76 | 984.8 |
| 20260506015514 | 17 | 23 | 9.7 | 17.7 | 0.00 | 0.00 | 0.00 | 77 | 984.9 |
| 20260506014513 | 17 | 5 | 12.9 | 25.7 | 0.00 | 0.00 | 0.00 | 75 | 984.6 |
| 20260506014013 | 17 | 26 | 17.7 | 27.4 | 0.00 | 0.00 | 0.00 | 74 | 984.4 |
| 20260506013518 | 18 | 0 | 12.9 | 27.4 | 0.00 | 0.00 | 0.00 | 74 | 984.2 |
| 20260506013011 | 18 | 40 | 8.0 | 25.7 | 0.00 | 0.00 | 0.00 | 75 | 984.2 |
| 20260506012511 | 18 | 355 | 8.0 | 17.7 | 0.00 | 0.00 | 0.00 | 75 | 983.8 |
| 20260506012120 | 18 | 333 | 12.9 | 22.5 | 0.00 | 0.00 | 0.00 | 72 | 983.4 |
| 20260506012012 | 18 | 319 | 8.0 | 17.7 | 0.00 | 0.00 | 0.00 | 75 | 983.7 |
| 20260506011631 | 18 | 320 | 8.0 | 17.7 | 0.00 | 0.00 | 0.00 | 74 | 983.5 |
| 20260506011057 | 18 | 348 | 8.0 | 16.1 | 0.00 | 0.00 | 0.00 | 73 | 983.3 |
| 20260506011009 | 18 | 313 | 11.3 | 24.1 | 0.00 | 0.00 | 0.00 | 74 | 983.5 |
| 20260506010633 | 18 | 320 | 12.9 | 24.1 | 0.00 | 0.00 | 0.00 | 74 | 983.5 |
| 20260506010104 | 18 | 303 | 9.7 | 22.5 | 0.00 | 0.00 | 0.00 | 73 | 983.3 |
| 20260506004501 | 18 | 321 | 14.5 | 22.5 | 0.00 | 0.00 | 0.00 | 72 | 983.3 |
| 20260506004227 | 18 | 323 | 12.9 | 19.3 | 0.00 | 0.00 | 0.00 | 72 | 983.4 |
| 20260506004016 | 18 | 327 | 12.9 | 20.9 | 0.00 | 0.00 | 0.00 | 72 | 983.3 |
| 20260506003341 | 20 | 311 | 17.7 | 29.0 | 0.00 | 0.00 | 0.00 | 70 | 983.0 |
| 20260506002949 | 19 | 308 | 11.3 | 19.3 | 0.00 | 0.00 | 0.00 | 72 | 983.5 |
| 20260506002632 | 20 | 292 | 16.1 | 27.4 | 0.00 | 0.00 | 0.00 | 69 | 982.9 |
| 20260506002501 | 19 | 325 | 11.3 | 22.5 | 0.00 | 0.00 | 0.00 | 72 | 983.2 |
| 20260506002043 | 19 | 5 | 14.5 | 29.0 | 0.00 | 0.00 | 0.00 | 71 | 982.9 |
| 20260506000446 | 20 | 321 | 16.1 | 25.7 | 0.00 | 0.00 | 0.00 | 70 | 982.8 |
| 20260506000037 | 20 | 328 | 17.7 | 27.4 | 0.00 | 0.00 | 0.00 | 69 | 983.1 |
| 20260505235456 | 20 | 324 | 14.5 | 27.4 | 0.00 | 0.00 | 0.00 | 69 | 983.1 |
| 20260505235013 | 21 | 288 | 14.5 | 25.7 | 0.00 | 0.00 | 0.00 | 69 | 983.0 |
| 20260505234510 | 21 | 343 | 14.5 | 25.7 | 0.00 | 0.00 | 0.00 | 69 | 983.0 |
| 20260505234007 | 21 | 326 | 14.5 | 27.4 | 0.00 | 0.00 | 0.00 | 69 | 983.1 |
| 20260505233603 | 22 | 321 | 16.1 | 25.7 | 0.00 | 0.00 | 0.00 | 67 | 982.7 |
| 20260505233455 | 21 | 308 | 14.5 | 27.4 | 0.00 | 0.00 | 0.00 | 68 | 983.2 |
| 20260505233013 | 21 | 309 | 14.5 | 22.5 | 0.00 | 0.00 | 0.00 | 69 | 983.0 |
| 20260505232521 | 21 | 300 | 14.5 | 25.7 | 0.00 | 0.00 | 0.00 | 68 | 982.7 |
| 20260505231437 | 22 | 319 | 14.5 | 24.1 | 0.00 | 0.00 | 0.00 | 68 | 982.6 |
| 20260505231102 | 22 | 308 | 17.7 | 32.2 | 0.00 | 0.00 | 0.00 | 68 | 982.8 |
| 20260505230955 | 22 | 326 | 14.5 | 24.1 | 0.00 | 0.00 | 0.00 | 68 | 982.2 |
| 20260505225937 | 22 | 306 | 17.7 | 32.2 | 0.00 | 0.00 | 0.00 | 67 | 982.7 |
| 20260505225443 | 23 | 336 | 17.7 | 32.2 | 0.00 | 0.00 | 0.00 | 66 | 982.7 |
| 20260505224933 | 23 | 291 | 17.7 | 32.2 | 0.00 | 0.00 | 0.00 | 66 | 982.7 |
| 20260505224436 | 23 | 334 | 17.7 | 27.4 | 0.00 | 0.00 | 0.00 | 66 | 982.5 |
| 20260505223936 | 24 | 306 | 16.1 | 25.7 | 0.00 | 0.00 | 0.00 | 64 | 982.5 |
| 20260505223435 | 25 | 292 | 16.1 | 27.4 | 0.00 | 0.00 | 0.00 | 63 | 982.4 |
| 20260505222934 | 25 | 306 | 14.5 | 27.4 | 0.00 | 0.00 | 0.00 | 64 | 982.2 |
| 20260505222437 | 25 | 307 | 12.9 | 25.7 | 0.00 | 0.00 | 0.00 | 63 | 982.2 |
| 20260505221936 | 25 | 318 | 14.5 | 20.9 | 0.00 | 0.00 | 0.00 | 63 | 982.3 |
| 20260505221437 | 25 | 313 | 14.5 | 20.9 | 0.00 | 0.00 | 0.00 | 62 | 982.0 |
| 20260505220931 | 26 | 288 | 11.3 | 20.9 | 0.00 | 0.00 | 0.00 | 64 | 981.9 |
| 20260505220439 | 26 | 338 | 12.9 | 25.7 | 0.00 | 0.00 | 0.00 | 63 | 981.9 |
| 20260505220057 | 27 | 288 | 14.5 | 25.7 | 0.00 | 0.00 | 0.00 | 60 | 981.9 |
| 20260505215955 | 26 | 311 | 14.5 | 25.7 | 0.00 | 0.00 | 0.00 | 62 | 981.7 |
| 20260505214933 | 27 | 290 | 14.5 | 22.5 | 0.00 | 0.00 | 0.00 | 61 | 981.6 |
| 20260505214433 | 28 | 298 | 14.5 | 22.5 | 0.00 | 0.00 | 0.00 | 59 | 981.8 |
| 20260505213930 | 27 | 306 | 14.5 | 22.5 | 0.00 | 0.00 | 0.00 | 60 | 981.8 |
| 20260505213559 | 27 | 263 | 14.5 | 22.5 | 0.00 | 0.00 | 0.00 | 55 | 981.8 |
| 20260505213458 | 27 | 258 | 14.5 | 22.5 | 0.00 | 0.00 | 0.00 | 60 | 981.7 |
| 20260505212943 | 27 | 299 | 14.5 | 22.5 | 0.00 | 0.00 | 0.00 | 57 | 981.7 |
| 20260505212046 | 28 | 289 | 17.7 | 27.4 | 0.00 | 0.00 | 0.00 | 56 | 981.8 |
| 20260505211947 | 27 | 245 | 16.1 | 27.4 | 0.00 | 0.00 | 0.00 | 57 | 981.8 |
| 20260505210925 | 28 | 304 | 16.1 | 27.4 | 0.00 | 0.00 | 0.00 | 56 | 981.9 |
| 20260505210419 | 28 | 288 | 16.1 | 27.4 | 0.00 | 0.00 | 0.00 | 54 | 981.7 |
| 20260505205922 | 28 | 302 | 16.1 | 25.7 | 0.00 | 0.00 | 0.00 | 53 | 981.8 |
| 20260505205418 | 28 | 281 | 16.1 | 25.7 | 0.00 | 0.00 | 0.00 | 49 | 981.8 |
| 20260505204925 | 28 | 287 | 16.1 | 25.7 | 0.00 | 0.00 | 0.00 | 52 | 981.8 |
| 20260505204418 | 28 | 265 | 14.5 | 24.1 | 0.00 | 0.00 | 0.00 | 48 | 981.9 |
| 20260505203919 | 28 | 269 | 14.5 | 27.4 | 0.00 | 0.00 | 0.00 | 48 | 982.0 |
| 20260505203415 | 28 | 283 | 14.5 | 27.4 | 0.00 | 0.00 | 0.00 | 45 | 982.0 |
| 20260505202923 | 28 | 277 | 16.1 | 29.0 | 0.00 | 0.00 | 0.00 | 47 | 982.1 |
| 20260505202414 | 28 | 279 | 19.3 | 29.0 | 0.00 | 0.00 | 0.00 | 43 | 982.2 |
| 20260505201920 | 29 | 281 | 17.7 | 27.4 | 0.00 | 0.00 | 0.00 | 46 | 982.1 |
| 20260505201413 | 29 | 293 | 19.3 | 30.6 | 0.00 | 0.00 | 0.00 | 43 | 981.8 |
| 20260505200920 | 29 | 265 | 17.7 | 30.6 | 0.00 | 0.00 | 0.00 | 49 | 982.0 |
| 20260505200414 | 30 | 269 | 14.5 | 25.7 | 0.00 | 0.00 | 0.00 | 53 | 982.1 |
| 20260505195915 | 30 | 234 | 12.9 | 22.5 | 0.00 | 0.00 | 0.00 | 50 | 982.0 |
| 20260505195543 | 30 | 234 | 16.1 | 24.1 | 0.00 | 0.00 | 0.00 | 50 | 982.1 |
| 20260505195434 | 30 | 250 | 14.5 | 24.1 | 0.00 | 0.00 | 0.00 | 51 | 982.1 |
| 20260505194413 | 30 | 251 | 14.5 | 24.1 | 0.00 | 0.00 | 0.00 | 51 | 982.0 |
| 20260505193919 | 29 | 244 | 14.5 | 24.1 | 0.00 | 0.00 | 0.00 | 51 | 981.8 |
| 20260505193410 | 30 | 233 | 16.1 | 25.7 | 0.00 | 0.00 | 0.00 | 53 | 982.0 |
| 20260505192914 | 29 | 239 | 17.7 | 25.7 | 0.00 | 0.00 | 0.00 | 52 | 982.0 |
| 20260505192408 | 30 | 238 | 16.1 | 29.0 | 0.00 | 0.00 | 0.00 | 55 | 982.1 |
| 20260505191906 | 30 | 215 | 17.7 | 32.2 | 0.00 | 0.00 | 0.00 | 56 | 982.0 |
| 20260505191406 | 30 | 219 | 19.3 | 32.2 | 0.00 | 0.00 | 0.00 | 58 | 981.9 |
| 20260505190909 | 29 | 232 | 20.9 | 33.8 | 0.00 | 0.00 | 0.00 | 56 | 981.9 |
| 20260505190407 | 29 | 232 | 20.9 | 33.8 | 0.00 | 0.00 | 0.00 | 57 | 982.0 |
| 20260505185921 | 29 | 244 | 17.7 | 29.0 | 0.00 | 0.00 | 0.00 | 56 | 981.8 |